Retour au catalogue

OPS 4682 DEB

ActifPO
NORAD 38417·DEBRIS·🇺🇸 United States

Lancé Apr 3, 1965 depuis Vandenberg Space Force Base

Loading…

Prochains Passages (prochaines 24 heures)

TLE

FraisSource: Space-Track

Époque: Sep 13, 2026, 02:06 UTC

1 38417U 65027DW  26256.08791475  .00000527  00000-0  18074-2 0  9991
2 38417  90.2554  14.2975 0030902 270.1413  89.6166 12.96705041618073

Suivez OPS 4682 DEB en temps réel avec AllMySat

Download on the App Store